DW8404 Weather Reports


Display with metric or nautical units.
time (UTC)temp
F
wind
direction
speed
MPH
gust
MPH
rain 1hr
in
rain 24hr
in
rain mn
in
humidity
%
barometer
mb
20260505052713 73 223 12.0 35.0 0.00 0.00 0.00 59 1002.4
20260505052003 73 219 15.0 35.0 0.00 0.00 0.00 59 1002.3
20260505051503 73 216 14.0 35.0 0.00 0.00 0.00 59 1002.2
20260505051217 73 214 14.0 40.0 0.00 0.00 0.00 58 1002.2
20260505050503 73 217 16.0 40.0 0.00 0.00 0.00 58 1002.2
20260505050223 73 222 15.0 37.0 0.00 0.00 0.00 58 1002.1
20260505041714 74 220 16.0 33.0 0.00 0.00 0.00 57 1001.7
20260505041217 74 220 15.0 48.0 0.00 0.00 0.00 57 1001.6
20260505040715 74 218 11.0 48.0 0.00 0.00 0.00 58 1001.6
20260505040213 74 211 7.0 37.0 0.00 0.00 0.00 57 1001.6
20260505035716 75 214 7.0 37.0 0.00 0.00 0.00 57 1001.9
20260505035214 75 213 8.0 25.0 0.00 0.00 0.00 56 1002.0
20260505034503 75 214 8.0 38.0 0.00 0.01 0.00 56 1002.0
20260505034215 75 219 7.0 38.0 0.00 0.03 0.00 56 1002.1
20260505033503 75 213 13.0 41.0 0.00 0.04 0.00 56 1002.2
20260505033005 75 210 14.0 41.0 0.00 0.04 0.00 56 1002.3
20260505032503 76 209 9.0 29.0 0.00 0.04 0.00 55 1002.3
20260505032003 76 210 6.0 26.0 0.00 0.04 0.00 55 1002.2
20260505031715 76 209 6.0 26.0 0.00 0.04 0.00 55 1002.2
20260505031003 76 212 6.0 32.0 0.00 0.04 0.00 56 1002.2
20260505030716 76 212 7.0 32.0 0.00 0.04 0.00 56 1002.2
20260505030214 76 210 7.0 21.0 0.00 0.04 0.00 55 1002.0
20260505025503 76 214 7.0 29.0 0.00 0.04 0.00 55 1002.0
20260505025215 76 214 7.0 29.0 0.00 0.04 0.00 56 1002.1
20260505024713 76 210 5.0 29.0 0.00 0.04 0.00 56 1002.0
20260505024216 76 216 5.0 14.0 0.00 0.04 0.00 56 1002.0
20260505023714 76 223 3.0 14.0 0.00 0.04 0.00 56 1002.0
20260505023217 76 224 1.0 7.0 0.00 0.04 0.00 56 1001.9
20260505022715 76 0 0.0 0.0 0.00 0.04 0.00 56 1001.9
20260505022212 76 0 0.0 0.0 0.00 0.04 0.00 55 1001.7
20260505021503 76 0 0.0 0.0 0.00 0.04 0.00 55 1001.5
20260505021003 76 0 0.0 0.0 0.00 0.04 0.00 55 1001.4
20260505020716 76 0 0.0 0.0 0.00 0.04 0.00 55 1001.3
20260505020214 76 0 0.0 0.0 0.00 0.04 0.00 55 1001.2
20260505015503 76 0 0.0 0.0 0.00 0.04 0.00 55 1001.0
20260505015215 76 0 0.0 0.0 0.00 0.04 0.00 55 1001.0
20260505014503 76 0 0.0 0.0 0.00 0.04 0.00 56 1000.9
20260505014216 77 0 0.0 0.0 0.00 0.04 0.00 56 1000.9
20260505013714 77 0 0.0 0.0 0.00 0.04 0.00 56 1000.9
20260505013003 77 0 0.0 0.0 0.00 0.04 0.00 55 1000.9
20260505012715 77 0 0.0 0.0 0.00 0.04 0.00 55 1000.8
20260505012003 77 0 0.0 0.0 0.00 0.04 0.00 55 1000.7
20260505011716 77 0 0.0 0.0 0.00 0.04 0.00 55 1000.7
20260505011003 78 0 0.0 0.0 0.00 0.04 0.00 54 1000.6
20260505010503 78 0 0.0 0.0 0.00 0.04 0.00 55 1000.5
20260505010215 78 0 0.0 0.0 0.00 0.04 0.00 54 1000.5
20260505005503 78 0 0.0 0.0 0.00 0.04 0.00 54 1000.5
20260505005004 78 0 0.0 0.0 0.00 0.04 0.00 54 1000.6
20260505004503 78 0 0.0 0.0 0.00 0.04 0.00 54 1000.5
20260505004003 78 0 0.0 0.0 0.00 0.04 0.00 53 1000.4
20260505003503 78 0 0.0 0.0 0.00 0.04 0.00 53 1000.3
20260505003003 78 0 0.0 0.0 0.00 0.04 0.00 53 1000.3
20260505002503 79 0 0.0 0.0 0.00 0.04 0.00 52 1000.3
20260505002003 79 0 0.0 0.0 0.00 0.04 0.00 52 1000.3
20260505001503 79 0 0.0 0.0 0.00 0.04 0.00 51 1000.3
20260505001215 80 0 0.0 0.0 0.00 0.04 0.00 51 1000.3
20260505000503 80 0 0.0 0.0 0.00 0.04 0.00 51 1000.3
20260505000216 80 0 0.0 0.0 0.00 0.04 0.00 50 1000.3
20260504235503 80 0 0.0 0.0 0.00 0.04 0.00 49 1000.3
20260504235003 81 0 0.0 0.0 0.00 0.04 0.00 49 1000.3
20260504234714 81 0 0.0 0.0 0.00 0.04 0.00 49 1000.4
20260504234003 81 0 0.0 0.0 0.00 0.04 0.00 49 1000.3
20260504233503 81 0 0.0 0.0 0.00 0.04 0.00 49 1000.4
20260504233003 81 0 0.0 0.0 0.00 0.04 0.00 48 1000.4
20260504232503 81 0 0.0 0.0 0.00 0.04 0.00 49 1000.5
20260504232003 80 0 0.0 0.0 0.00 0.04 0.00 50 1000.5
20260504231503 80 0 0.0 0.0 0.00 0.04 0.00 51 1000.6
20260504231215 80 0 0.0 0.0 0.00 0.04 0.00 52 1000.7
20260504230503 79 0 0.0 0.0 0.00 0.04 0.00 52 1000.7
20260504230216 79 0 0.0 0.0 0.00 0.04 0.00 53 1000.7
20260504225503 79 0 0.0 0.0 0.00 0.04 0.00 59 1000.8
20260504225003 79 0 0.0 0.0 0.00 0.04 0.00 56 1000.8
20260504224715 79 0 0.0 0.0 0.00 0.04 0.00 56 1001.0
20260504224003 79 0 0.0 0.0 0.00 0.04 0.00 52 1000.9
20260504223503 80 0 0.0 0.0 0.00 0.04 0.00 52 1000.8
20260504223214 80 0 0.0 0.0 0.00 0.04 0.00 51 1000.7
20260504222717 80 0 0.0 0.0 0.00 0.04 0.00 51 1000.9
20260504222215 80 0 0.0 0.0 0.00 0.04 0.00 51 1001.0
20260504221503 80 0 0.0 0.0 0.00 0.04 0.00 51 1001.0
20260504221216 80 0 0.0 0.0 0.00 0.04 0.00 51 1001.1
20260504220503 80 0 0.0 0.0 0.00 0.04 0.00 56 1001.2
20260504220217 80 0 0.0 0.0 0.00 0.04 0.00 55 1001.2
20260504215503 80 0 0.0 0.0 0.00 0.04 0.00 54 1001.2
20260504215003 80 0 0.0 0.0 0.00 0.04 0.00 55 1001.1
20260504214716 80 0 0.0 0.0 0.00 0.04 0.00 55 1001.2
20260504214214 80 0 0.0 0.0 0.00 0.04 0.00 54 1001.3
20260504213503 80 0 0.0 0.0 0.00 0.04 0.00 55 1001.3
20260504213003 81 0 0.0 0.0 0.00 0.04 0.00 55 1001.4
20260504212503 80 0 0.0 0.0 0.00 0.04 0.00 54 1001.4
20260504212003 80 0 0.0 0.0 0.00 0.04 0.00 54 1001.3
20260504211714 80 0 0.0 0.0 0.00 0.04 0.00 55 1001.3
20260504211217 80 0 0.0 0.0 0.00 0.04 0.00 53 1001.3
20260504210715 80 0 0.0 0.0 0.00 0.04 0.00 55 1001.4
20260504210003 80 0 0.0 0.0 0.00 0.04 0.00 54 1001.5
20260504205503 80 0 0.0 0.0 0.00 0.04 0.00 53 1001.6
20260504205213 80 0 0.0 0.0 0.00 0.04 0.00 53 1001.6
20260504204503 80 0 0.0 0.0 0.00 0.04 0.00 53 1001.7
20260504204003 80 0 0.0 0.0 0.00 0.04 0.00 53 1001.9
20260504203712 80 0 0.0 0.0 0.00 0.04 0.00 54 1001.6
20260504203003 78 0 0.0 0.0 0.00 0.04 0.00 55 1001.7
20260504202713 78 0 0.0 0.0 0.00 0.04 0.00 56 1001.9
20260504202216 78 0 0.0 0.0 0.00 0.04 0.00 55 1002.0
20260504201503 78 0 0.0 0.0 0.00 0.04 0.00 55 1002.2
20260504201003 77 0 0.0 0.0 0.00 0.04 0.00 58 1002.3
20260504200503 76 0 0.0 0.0 0.00 0.04 0.00 58 1002.5
20260504200213 76 0 0.0 0.0 0.00 0.04 0.00 61 1002.5
20260504195503 75 0 0.0 0.0 0.00 0.04 0.00 59 1002.6
20260504195214 74 0 0.0 0.0 0.00 0.04 0.00 60 1002.6
20260504194717 73 0 0.0 0.0 0.00 0.04 0.00 60 1002.8
20260504194003 73 0 0.0 0.0 0.00 0.04 0.00 60 1002.9
20260504193503 73 0 0.0 0.0 0.00 0.04 0.00 60 1002.9
20260504193003 74 0 0.0 0.0 0.00 0.04 0.00 61 1003.0
20260504192714 73 0 0.0 0.0 0.00 0.04 0.00 60 1003.0
20260504192217 73 0 0.0 0.0 0.00 0.04 0.00 62 1003.2
20260504191503 72 0 4.0 0.0 0.00 0.04 0.00 65 1003.1
20260504191003 64 215 4.0 19.0 0.00 0.04 0.00 66 1002.8
20260504190504 64 215 4.0 19.0 0.00 0.04 0.00 66 1002.5
20260504190003 64 215 4.0 19.0 0.00 0.04 0.00 66 1002.5
20260504185717 64 215 4.0 19.0 0.00 0.04 0.00 66 1002.2
20260504185215 64 215 4.0 19.0 0.00 0.04 0.00 66 1002.3
20260504184713 64 215 4.0 19.0 0.00 0.04 0.00 66 1002.7
20260504184216 64 215 4.0 19.0 0.00 0.04 0.00 66 1003.1
20260504183503 64 215 4.0 19.0 0.00 0.04 0.00 66 1003.5
20260504183003 64 215 4.0 19.0 0.00 0.04 0.00 66 1003.6
20260504182720 64 215 4.0 19.0 0.00 0.04 0.00 66 1003.4
20260504182212 64 215 4.0 19.0 0.00 0.04 0.00 66 1003.7
20260504181503 64 215 4.0 19.0 0.00 0.04 0.00 66 1003.9
20260504181213 64 215 4.0 19.0 0.00 0.04 0.00 66 1003.9
20260504180503 64 215 4.0 19.0 0.00 0.04 0.00 66 1003.7
20260504180003 64 215 4.0 19.0 0.00 0.04 0.00 66 1003.4
20260504175503 64 215 4.0 19.0 0.00 0.04 0.00 66 1003.7
20260504175003 64 215 4.0 19.0 0.00 0.04 0.00 66 1003.9
20260504174503 64 215 4.0 19.0 0.00 0.04 0.00 66 1004.1
20260504174216 64 215 4.0 19.0 0.00 0.04 0.00 66 1004.1
20260504173714 64 215 4.0 19.0 0.00 0.04 0.00 66 1004.0
20260504173003 64 215 4.0 19.0 0.00 0.04 0.00 66 1004.1
20260504172503 64 215 4.0 19.0 0.00 0.04 0.00 66 1004.3
20260504172003 64 215 4.0 19.0 0.00 0.04 0.00 66 1004.5
20260504171716 64 215 4.0 19.0 0.00 0.04 0.00 66 1004.5
20260504171214 64 215 4.0 19.0 0.00 0.04 0.00 66 1004.9
20260504170503 64 215 4.0 19.0 0.00 0.04 0.00 66 1005.0
20260504151003 64 215 4.0 19.0 0.00 0.04 0.00 66 1005.3
20260504150503 64 215 4.0 19.0 0.00 0.04 0.00 66 1005.4
20260504150216 64 215 4.0 19.0 0.00 0.04 0.00 66 1005.7
20260504141216 64 215 4.0 19.0 0.00 0.04 0.00 66 1005.8
20260504140503 64 215 4.0 19.0 0.00 0.04 0.00 66 1005.7
20260504130503 64 215 4.0 19.0 0.00 0.04 0.00 66 1006.5
20260504120213 64 215 4.0 19.0 0.00 0.04 0.00 66 1006.7
20260504110503 64 215 4.0 19.0 0.00 0.04 0.00 66 1006.6
20260504110214 64 215 4.0 19.0 0.00 0.04 0.00 66 1006.6
20260504081503 59 126 1.0 6.0 0.00 0.04 0.00 87 1006.6
20260504081215 59 126 1.0 6.0 0.00 0.04 0.00 86 1006.7
20260504080503 60 0 0.0 0.0 0.00 0.04 0.00 85 1006.9
20260504080216 60 0 0.0 0.0 0.00 0.04 0.00 85 1006.9
20260504060217 64 0 0.0 0.0 0.00 0.04 0.00 73 1007.6